Content
SEND FEEDBACK

Daily
Averages
Monthly
Summary
Philippines

ANGELES, PHILIPPINES


Home > Asia > Philippines
Elevation: 577 feet     Latitude: 15 19N     Longitude: 120 23E

WEATHER
 
SELECT A DAY
Number of Records: 92,182;   Date Range: 2/13/97 - 4/16/14
 
SHARE

PRINT THIS DATA

[ ← Previous Day ]
WEATHER ALMANAC - SEPTEMBER 15, 2013
[ Next Day → ]
[ °C ]   °F
Weather ElementAverageHighLow
Temperature77.3 °F82.4 °F (10:00 am)75.2 °F (1:00 am)
Dewpoint75.7 °F77 °F (9:00 am)73.4 °F (6:00 am)
Humidity95.1 %100 % (1:00 am)84 % (10:00 am)
Barometer29.75 in29.80 in (9:00 am)29.71 in (3:00 am)
Wind Speed5.1 mph11.5 mph (12:00 pm)
Weather ElementAverage
Visibility5.5 mi
Wind DirectionESE (126.7 °)

Weather ElementTotal
Precipitation---
Cooling Degree Days13.8 (Base 65)
Growing Degree Days28.8 (Base 50)
Averaged from 24 records on September 15, 2013
WEATHER CONDITIONS BREAKOUT
WIND DIRECTION BREAKOUT
WEATHER BY HOUR - SEPTEMBER 15, 2013
[ °C ]   °F
Local TimeTemperatureDewpointHumidityBarometerVisibilityWind DirectionWind SpeedGust SpeedPrecipitationEventsConditions
1:00 AM75.2 °F75.2 °F100 %29.77 in5.0 miNE (40°)2.3 mphRainLight Rain
2:00 AM75.2 °F75.2 °F100 %29.74 in5.6 miSE (130°)2.3 mphOvercast
3:00 AM75.2 °F75.2 °F100 %29.71 in5.6 miSouth (170°)5.8 mphOvercast
4:00 AM75.2 °F75.2 °F100 %29.71 in5.0 miSSE (160°)4.6 mphRainLight Rain Showers
5:00 AM75.2 °F75.2 °F100 %29.74 in5.6 miVariable3.5 mphOvercast
6:00 AM75.2 °F73.4 °F94 %29.74 in5.6 miSSE (160°)2.3 mphMostly Cloudy
7:00 AM75.2 °F75.2 °F100 %29.77 in6.2 miVariable1.2 mphMostly Cloudy
8:00 AM78.8 °F75.2 °F89 %29.77 in6.2 miVariable1.2 mphMostly Cloudy
9:00 AM80.6 °F77.0 °F89 %29.80 in6.2 miVariable1.2 mphMostly Cloudy
10:00 AM82.4 °F77.0 °F84 %29.77 in6.2 miSSE (150°)5.8 mphOvercast
10:25 AM78.8 °F77.0 °F94 %29.77 inSouth (180°)10.4 mphRainRain
11:00 AM77.0 °F77.0 °F100 %29.74 in4.3 miSouth (170°)8.1 mphRainRain
12:00 PM82.4 °F77.0 °F84 %29.74 in5.6 miSouth (180°)11.5 mphOvercast
1:00 PM82.4 °F77.0 °F84 %29.71 in5.6 miSouth (170°)9.2 mphOvercast
2:00 PM78.8 °F77.0 °F94 %29.71 in5.6 miSouth (170°)10.4 mphOvercast
3:00 PM78.8 °F77.0 °F94 %29.71 in5.6 miSSE (150°)5.8 mphOvercast
4:00 PM77.0 °F75.2 °F94 %29.71 in5.6 miSSE (150°)6.9 mphOvercast
5:00 PM77.0 °F75.2 °F94 %29.71 in5.6 miSSE (150°)5.8 mphOvercast
6:00 PM77.0 °F75.2 °F94 %29.74 in5.0 miSE (130°)5.8 mphRainLight Rain
7:00 PM77.0 °F75.2 °F94 %29.77 in5.0 miSE (130°)2.3 mphRainLight Rain
8:00 PM75.2 °F75.2 °F100 %29.77 in5.6 miSE (140°)3.5 mphMostly Cloudy
9:00 PM75.2 °F75.2 °F100 %29.77 in5.6 miSouth (190°)4.6 mphOvercast
10:00 PM75.2 °F75.2 °F100 %29.80 in5.0 miWSW (250°)4.6 mphRainLight Rain Showers
11:00 PM75.2 °F75.2 °F100 %29.77 in5.0 miENE (70°)2.3 mphRainLight Rain Showers
Hourly data recorded from RPLC, located 14.28 miles away from Angeles, Philippines







STORIES FROM OUR PARTNERS